GFSFLT2_700_rhum_000.txt.gz
RH
70 75 78 73 76 80 76 76 84 88 71 67 63 87 99 96 81 92 100 87 82 86 84 100 100 92 68
50 52 68 74 70 75 79 83 86 93 81 67 62 82 96 99 98 99 99 100 88 99 98 95 99 90 69
48 53 61 71 78 76 73 75 89 98 98 75 71 74 84 94 99 100 98 98 92 99 99 80 97 70 79
69 64 71 68 74 75 72 75 78 99 99 99 96 95 99 99 99 98 99 99 99 99 100 97 96 85 81
66 94 99 98 94 85 84 90 87 93 88 99 100 100 95 99 99 98 98 99 99 99 98 97 94 80 84
54 53 57 70 98 97 99 98 94 65 90 92 97 97 99 99 99 98 99 99 99 98 98 96 77 82 58
56 50 52 54 80 90 94 78 94 93 99 97 95 98 99 99 99 99 99 98 98 98 97 82 80 63 7
57 51 54 50 59 68 97 84 82 94 97 100 100 95 92 100 98 98 98 98 98 98 83 79 59 4 8
54 49 52 60 79 100 94 100 97 98 98 97 98 100 99 99 98 98 98 98 98 88 78 51 1 9 12
50 48 64 64 83 98 97 97 99 99 99 99 99 99 99 99 98 98 98 98 92 80 38 0 10 10 13
68 63 62 60 72 88 98 98 97 98 99 98 99 98 98 98 98 98 97 94 76 15 2 10 11 18 25
78 73 94 87 97 99 93 98 98 99 100 99 98 97 98 98 98 97 94 64 9 5 11 14 26 31 37
89 86 100 100 100 96 98 98 98 99 98 98 98 98 98 97 97 96 76 20 7 13 24 32 37 40 44
87 84 97 98 100 97 98 97 97 97 96 96 97 97 97 97 96 62 11 10 19 30 36 38 39 42 43
94 99 100 97 97 97 97 96 96 97 97 97 97 97 96 88 22 8 13 26 33 37 43 44 43 46 49
98 97 97 97 97 97 96 96 96 97 97 97 96 80 16 10 13 19 29 36 42 42 42 45 50 56 59
96 96 97 97 97 96 96 97 97 97 97 92 12 12 14 17 26 35 42 42 38 40 45 51 58 69 67

GFSFLT2_700_rhum_003.txt.gz
RH
31 30 31 31 37 57 65 67 70 63 70 89 99 99 99 99 97 95 77 68 80 95 99 98 95 88 76
24 31 34 31 30 38 57 68 74 75 77 77 80 99 99 99 98 93 88 85 95 98 99 96 97 98 99
44 28 30 36 43 69 77 78 70 72 78 75 73 76 97 96 99 92 91 99 99 100 98 99 99 99 95
46 35 34 32 52 55 56 99 100 98 88 84 81 78 76 86 98 100 95 96 98 99 99 99 100 99 99
69 65 50 48 62 61 60 53 58 68 82 93 89 87 79 73 99 96 99 99 100 98 98 99 99 99 98
96 94 80 82 72 66 62 60 50 52 54 51 68 75 88 95 93 95 100 100 99 99 99 99 99 99 99
93 89 86 87 80 69 64 59 52 49 54 48 56 59 66 99 98 88 96 98 99 98 99 98 98 98 98
88 96 96 95 81 71 64 63 50 46 51 62 62 87 71 90 99 100 95 99 98 99 98 98 98 98 98
60 95 97 96 86 86 76 86 60 52 58 93 71 96 98 84 98 98 98 98 98 98 98 98 98 97 96
60 83 96 96 91 99 100 100 100 82 88 100 90 97 100 99 98 98 98 98 98 97 97 98 97 95 42
71 86 96 97 89 90 100 100 99 100 100 99 98 99 100 98 98 98 98 98 97 97 97 97 96 70 7
89 93 97 98 99 100 100 98 99 99 99 99 98 98 98 98 98 98 98 97 97 97 97 86 18 1 5
95 96 94 94 92 94 100 98 98 98 95 97 97 98 98 97 97 98 97 97 97 96 86 22 5 10 22
92 96 95 97 99 99 98 97 96 96 96 97 97 97 97 96 97 97 96 96 96 60 6 8 22 35 39
96 95 94 98 98 96 96 96 96 96 96 96 96 96 96 96 97 96 94 51 9 10 24 36 39 42 44
96 95 95 96 96 96 96 96 96 96 96 96 96 96 97 96 68 13 8 11 23 35 40 44 46 47 51
95 95 95 96 96 96 96 96 96 96 96 96 96 73 10 10 12 13 21 31 43 47 48 47 48 50 53

GFSFLT2_700_rhum_006.txt.gz
RH
6 6 6 6 5 9 13 22 33 35 38 50 61 70 71 86 97 100 98 99 98 97 99 97 95 83 100
6 6 6 5 5 5 5 6 17 29 65 72 77 73 78 74 80 88 92 99 98 99 100 98 100 89 97
5 5 6 5 5 5 6 6 15 22 42 73 99 84 84 88 80 81 82 77 96 98 99 99 100 96 90
4 4 4 4 5 8 6 14 14 36 45 47 54 90 99 97 96 94 84 78 78 80 92 99 98 100 99
6 5 4 4 9 18 39 38 28 46 57 59 54 52 52 51 70 81 93 96 89 92 90 99 97 99 99
10 9 7 16 29 40 93 76 62 65 63 56 57 52 48 45 51 66 76 99 84 87 83 97 99 99 99
16 14 19 28 88 78 69 92 78 78 79 60 58 50 47 42 40 53 61 66 96 94 88 98 97 99 100
25 88 78 100 60 78 85 96 87 78 78 63 56 47 46 41 40 55 71 68 76 91 94 96 99 98 99
29 58 58 53 74 91 95 96 87 86 78 81 56 58 59 50 57 76 80 84 79 95 98 98 98 98 98
18 26 42 54 75 99 98 95 98 92 80 99 94 84 70 54 92 81 89 90 100 95 98 97 98 98 98
29 35 43 75 97 96 96 96 97 98 94 92 84 95 100 87 100 94 95 99 99 97 97 98 98 96 97
27 38 79 92 95 96 97 98 98 93 91 100 94 92 91 97 98 98 97 98 97 97 97 97 96 96 97
26 72 58 87 97 97 93 97 98 96 95 96 97 98 98 97 96 97 97 97 97 96 96 96 96 97 96
55 48 83 94 94 93 91 96 94 96 96 96 94 96 96 96 96 96 97 97 96 96 97 96 96 94 39
37 70 90 88 88 94 95 95 96 96 96 96 97 96 96 96 96 96 96 96 96 97 96 95 70 18 11
67 93 92 92 93 96 96 96 96 96 95 95 96 96 96 96 96 96 97 96 96 87 54 19 18 30 41
95 94 96 97 96 96 96 96 96 96 95 95 96 96 96 94 94 83 49 20 16 24 36 46 50 52 54

GFSFLT2_700_rhum_012.txt.gz
RH
12 8 8 11 11 13 12 11 9 8 7 6 6 6 6 7 7 6 8 21 32 34 32 40 60 86 76
23 21 13 13 27 34 11 10 10 8 7 6 6 6 6 6 6 6 6 6 20 27 35 39 46 64 79
66 80 76 59 66 59 42 18 16 10 8 6 5 5 5 6 6 5 6 6 7 23 38 38 55 70 70
85 84 76 59 49 27 23 23 32 22 13 20 15 22 26 12 7 6 5 6 6 21 82 57 63 75 79
83 75 62 31 30 30 54 23 19 51 79 70 65 73 80 74 44 22 11 5 6 16 56 99 59 89 91
81 87 41 41 38 36 26 20 12 13 83 81 82 63 32 41 51 46 25 10 6 20 48 81 100 99 80
100 74 45 41 37 22 20 57 25 24 58 35 40 56 72 79 88 89 82 54 27 30 42 46 60 88 66
48 46 49 37 30 34 34 35 46 59 100 74 82 84 92 89 95 98 100 89 69 53 49 46 38 32 33
41 48 40 28 31 38 44 90 84 88 98 94 95 93 93 95 98 96 98 92 71 61 52 48 44 32 34
39 35 26 23 24 54 94 98 95 92 98 96 96 95 82 96 96 96 98 89 71 56 49 44 41 37 37
39 26 22 18 31 68 98 97 95 91 98 97 94 94 94 82 96 97 98 100 90 59 59 64 53 58 53
33 22 16 45 89 98 98 97 97 92 95 100 96 95 93 89 87 97 98 98 100 100 99 100 100 100 98
26 37 92 99 100 98 91 92 92 99 100 99 96 95 92 91 95 97 99 98 97 97 100 99 98 100 95
82 95 96 98 98 100 97 99 100 98 98 97 96 96 95 95 96 96 98 100 98 97 97 97 98 98 98
97 97 98 97 98 99 99 97 97 97 96 96 96 97 96 96 97 96 96 98 97 98 96 97 97 97 97
99 99 97 97 97 97 97 97 97 96 96 96 96 96 96 96 96 97 96 96 97 97 96 96 96 96 95
98 97 98 98 97 97 97 97 97 97 96 96 96 96 97 97 96 96 96 96 96 96 96 96 96 96 96

GFSFLT2_700_rhum_015.txt.gz
RH
11 8 9 18 23 58 62 68 40 23 24 15 13 10 8 8 8 7 6 8 16 18 20 33 45 48 58
21 39 28 30 58 70 70 62 46 15 13 18 60 90 12 8 7 7 6 6 6 7 7 8 11 23 40
66 60 74 79 75 72 67 35 25 23 24 37 30 24 34 19 18 9 7 6 6 6 6 6 6 7 31
96 89 94 76 85 78 38 30 22 27 31 24 19 19 63 80 91 93 63 14 6 6 6 6 6 6 6
94 95 91 59 48 40 40 29 25 31 23 14 26 32 76 84 88 91 94 71 16 6 6 6 6 7 7
100 99 77 50 39 43 46 42 21 19 31 25 53 43 48 47 40 38 41 38 49 27 9 6 6 7 7
100 98 72 43 49 47 43 30 24 20 40 45 82 79 92 93 91 83 78 74 49 20 18 11 5 4 6
94 68 51 47 56 43 31 24 23 24 60 86 94 91 97 94 95 97 97 82 83 51 19 10 4 4 4
49 47 52 52 42 35 24 33 25 49 75 96 90 93 96 92 97 98 100 99 93 99 43 12 5 3 4
42 47 46 34 31 41 62 77 76 73 83 96 92 96 88 88 97 98 98 96 95 89 79 54 37 38 19
50 40 32 33 49 82 97 99 94 88 91 97 95 93 98 87 96 97 96 96 99 100 89 78 71 62 53
42 36 60 86 90 95 97 98 98 98 97 100 96 97 94 92 95 96 98 98 99 98 98 79 73 58 49
66 90 92 93 94 99 94 99 98 100 98 99 98 99 98 89 92 97 96 96 98 98 100 100 99 79 67
98 95 95 98 98 99 97 98 97 97 97 97 97 98 97 91 93 98 97 96 96 96 96 98 100 99 98
97 94 97 97 98 98 98 97 97 96 97 97 97 97 96 95 97 98 99 97 96 96 96 97 98 98 98
98 98 97 98 98 98 97 98 97 97 97 96 97 96 97 96 97 98 97 96 96 96 96 97 97 96 97
97 98 98 98 97 97 98 97 98 97 97 97 96 97 96 96 96 96 96 95 96 96 96 97 96 96 96

GFSFLT2_700_rhum_018.txt.gz
RH
5 6 7 9 9 17 32 63 62 59 60 51 35 18 18 50 47 79 93 47 14 9 11 9 8 22 37
10 16 21 19 21 22 42 61 69 72 80 39 28 25 66 46 33 15 15 12 15 66 41 42 10 9 25
34 33 32 43 54 43 48 51 46 44 33 28 32 35 28 23 20 20 17 58 87 100 67 61 7 6 11
89 82 84 94 100 96 51 44 35 33 28 33 34 19 17 21 18 15 33 76 90 97 95 50 7 6 6
100 100 100 89 72 60 48 38 31 36 33 19 20 21 28 45 52 39 30 81 91 94 98 86 10 6 6
100 88 64 70 54 52 48 42 34 32 26 17 24 24 41 64 87 83 80 65 74 81 90 90 24 7 6
93 67 70 78 71 54 48 47 30 22 27 21 42 63 80 87 92 97 95 92 82 65 49 42 24 7 6
75 86 83 67 66 61 48 33 30 32 62 60 62 73 84 95 96 96 96 95 95 91 68 53 13 7 6
58 60 62 57 58 71 64 86 64 78 85 85 84 81 89 95 97 98 97 96 90 85 84 63 11 4 4
52 47 49 61 92 100 100 99 87 76 88 89 93 91 80 90 96 97 97 96 90 89 88 67 36 9 3
50 52 85 92 98 100 100 100 98 95 92 100 100 96 100 89 96 99 100 98 96 96 92 83 81 57 12
78 90 95 97 98 99 100 100 100 100 98 100 99 100 99 86 94 100 98 96 97 97 97 98 89 74 45
95 99 100 100 100 97 97 99 99 98 99 100 100 96 98 93 94 96 98 97 96 97 100 98 96 69 68
99 99 99 98 98 98 98 98 94 96 98 96 96 96 96 96 96 97 96 96 98 98 99 93 98 88 76
98 97 97 97 98 98 98 97 97 97 97 98 96 93 92 96 97 97 97 97 96 98 94 98 100 98 100
98 98 98 98 98 97 97 98 99 98 96 96 99 99 97 98 97 98 96 96 96 96 97 96 97 98 98
98 96 97 98 97 96 96 97 98 97 97 97 95 97 98 96 97 96 96 96 96 96 97 97 97 96 97

GFSFLT2_700_rhum_021.txt.gz
RH
7 6 6 7 8 16 33 50 42 39 56 96 44 35 81 45 27 41 88 84 100 100 98 98 98 98 71
7 8 12 13 18 19 27 37 81 85 88 53 50 48 29 26 34 66 50 50 76 100 95 100 81 91 91
21 26 37 66 58 57 44 48 51 55 48 45 41 34 34 34 31 26 37 55 57 46 63 64 80 94 98
86 93 95 68 72 62 43 44 42 41 42 43 43 36 25 20 19 18 18 17 17 14 16 69 91 94 95
100 100 84 59 57 54 51 46 36 47 42 24 24 21 20 23 27 30 42 52 76 91 73 71 80 88 92
100 89 70 58 53 66 61 54 30 40 41 20 42 32 49 62 69 79 83 75 81 60 88 87 87 76 76
99 69 62 64 72 73 58 61 64 63 92 68 82 75 77 76 79 85 89 88 89 90 82 59 51 53 61
74 63 81 81 70 84 95 95 90 88 97 83 85 76 80 77 81 95 97 96 96 96 96 95 90 49 48
57 63 61 79 100 100 97 100 87 87 90 90 82 78 78 75 85 98 100 100 99 97 93 91 79 61 41
52 61 98 100 100 100 100 98 96 87 90 96 90 91 69 66 87 100 98 95 93 94 95 81 76 64 24
88 98 98 97 98 99 100 100 99 94 97 100 92 91 91 80 94 94 91 98 96 97 96 93 82 60 12
96 96 95 96 97 98 99 99 100 100 99 99 96 97 91 86 92 96 96 95 96 96 96 97 81 42 9
94 96 99 98 99 96 98 98 98 98 98 98 98 96 94 91 95 95 92 97 97 98 97 98 96 45 14
97 97 97 97 97 96 96 95 96 97 98 98 98 95 94 93 96 97 96 97 95 97 100 96 99 82 48
97 96 97 97 97 97 96 96 97 96 96 99 97 96 94 98 96 96 97 96 97 97 96 95 99 97 98
100 98 92 96 97 97 98 97 95 97 96 98 97 97 97 97 95 96 96 96 96 96 96 96 96 98 98
100 100 94 82 92 97 96 96 97 98 98 98 96 96 97 96 96 93 96 96 96 97 97 96 95 95 95

GFSFLT2_700_rhum_024.txt.gz
RH
12 11 10 9 8 11 25 52 54 45 38 31 32 40 77 90 91 92 100 100 89 84 97 91 90 85 97
10 9 8 8 9 12 22 41 64 50 41 38 53 35 42 62 63 46 41 52 100 98 100 84 93 94 94
14 11 13 22 24 29 35 41 51 46 39 42 40 36 36 36 37 56 93 75 44 44 42 62 72 66 90
32 39 76 82 80 63 47 44 38 38 34 33 30 28 27 25 21 18 16 15 14 14 14 14 16 25 57
78 97 100 84 69 59 50 43 34 34 34 41 56 57 48 50 38 32 25 22 23 24 29 62 91 91 96
100 91 71 67 60 54 49 44 39 67 74 64 82 68 71 72 73 67 61 58 62 69 73 57 53 70 95
89 68 60 53 59 63 81 90 79 69 91 76 80 72 76 75 75 74 71 71 76 90 86 83 70 56 78
59 55 61 70 97 100 92 87 82 79 98 84 68 75 79 78 77 78 81 85 96 96 96 97 97 84 68
53 64 94 99 100 98 93 95 84 77 97 88 78 80 83 76 82 91 98 100 96 93 92 93 94 98 100
77 93 100 100 100 100 99 96 92 74 94 95 84 95 84 78 86 98 89 95 97 95 96 96 98 98 94
90 98 98 97 97 98 100 99 93 87 98 100 89 95 99 80 92 97 97 98 96 96 96 97 97 97 91
92 95 94 95 95 96 97 98 100 100 99 100 94 98 95 88 92 98 100 97 96 96 96 96 97 98 90
87 94 97 96 97 96 97 97 97 97 98 97 98 97 96 95 97 92 85 96 98 97 96 98 97 76 43
94 94 93 86 83 94 95 95 93 97 98 98 97 97 96 96 96 94 93 88 96 95 97 98 100 81 19
95 91 87 79 76 96 97 96 97 94 94 98 97 96 97 98 97 89 88 97 99 97 98 98 100 60 19
99 98 94 94 90 98 98 97 94 95 95 96 96 97 97 97 89 88 95 96 96 96 98 97 100 98 49
100 98 99 100 99 98 98 96 97 94 97 96 96 96 97 94 92 99 97 97 96 96 96 98 98 98 99

GFSFLT2_700_rhum_027.txt.gz
RH
13 11 9 8 9 14 23 30 43 49 45 38 35 34 35 62 97 88 100 62 100 100 100 100 97 97 98
6 5 7 10 12 18 29 59 97 86 51 41 39 39 41 39 35 36 34 39 42 43 50 88 90 91 90
10 11 17 30 28 34 51 73 80 60 47 48 44 38 35 28 25 22 22 45 84 100 99 98 95 89 94
23 37 65 62 65 68 57 54 46 43 43 50 62 64 70 68 57 42 30 24 19 16 16 18 19 18 19
54 95 77 70 64 56 49 42 52 70 78 76 78 74 70 73 74 71 69 67 58 39 27 21 18 18 17
80 71 61 58 52 52 76 82 64 70 89 66 84 75 69 69 70 69 69 68 69 68 61 54 50 45 41
60 54 53 64 91 88 86 82 71 77 99 74 82 69 76 76 79 83 78 67 62 61 64 67 68 69 68
49 68 93 97 98 94 85 82 77 84 99 82 80 78 81 81 89 96 92 77 68 59 59 64 73 94 100
84 90 93 94 99 96 92 92 78 75 97 88 79 79 77 84 96 100 91 77 65 71 83 87 94 96 93
81 86 99 100 100 100 96 94 92 74 96 92 83 91 72 78 99 93 81 90 93 94 95 94 95 97 93
86 92 93 93 94 94 100 100 92 86 98 100 88 94 98 81 98 95 95 96 98 97 97 97 98 96 93
87 85 83 81 79 76 84 98 99 99 97 100 95 98 94 93 93 94 97 97 96 96 98 98 99 96 97
86 88 88 88 84 67 88 96 97 97 98 96 94 97 98 97 95 97 85 93 96 96 95 96 96 97 95
90 91 94 94 93 84 84 89 88 96 99 96 95 97 97 97 96 96 96 95 94 95 98 97 97 99 64
93 92 91 92 94 93 93 91 97 93 93 99 96 96 96 96 96 95 94 98 96 96 99 97 100 82 28
97 96 91 93 92 95 99 97 94 96 93 96 97 97 97 96 90 91 99 98 96 96 98 97 71 46 12
97 95 92 97 96 94 92 93 97 97 97 99 97 96 95 96 96 98 97 97 97 96 97 99 86 33 10

GFSFLT2_700_rhum_030.txt.gz
RH
10 7 4 5 7 14 24 36 43 39 35 42 53 52 38 40 53 57 88 100 100 100 100 100 94 84 92
4 4 8 13 19 30 36 42 49 38 37 38 35 39 40 38 39 38 41 51 37 35 62 48 87 94 92
10 15 20 28 34 39 44 36 36 40 54 68 78 77 73 72 69 64 53 40 35 32 34 48 98 95 98
25 32 40 42 43 38 34 43 64 77 72 72 83 86 84 83 78 72 70 67 63 54 44 30 22 19 27
49 49 42 40 40 51 71 68 60 75 79 73 85 70 71 75 72 68 66 64 64 63 61 61 52 39 29
44 38 42 63 74 72 74 72 60 74 83 69 82 64 74 83 84 85 85 81 76 67 63 61 60 59 57
43 60 76 77 80 81 76 75 72 82 95 69 80 67 79 75 90 100 96 86 81 72 63 56 54 53 53
77 80 84 86 94 94 85 83 73 81 98 73 81 76 78 84 100 99 93 77 72 70 63 56 53 54 57
81 85 88 92 100 97 88 76 50 69 97 80 78 80 81 93 94 88 83 88 88 85 84 85 88 93 92
77 84 92 97 99 97 89 75 68 76 96 84 79 94 65 97 98 100 98 99 96 95 96 99 98 98 95
80 86 86 84 87 92 96 94 96 90 99 99 86 94 98 82 96 97 96 96 92 96 96 96 96 96 91
88 84 80 83 89 91 99 98 100 100 96 96 94 96 93 89 88 86 91 96 92 93 96 96 97 98 97
84 82 86 87 92 90 96 97 97 97 97 92 96 96 98 96 93 95 91 84 95 96 99 92 92 95 97
87 86 88 89 96 95 90 90 85 92 98 95 97 95 92 98 97 96 96 96 93 99 99 96 98 98 46
93 85 84 87 91 96 96 93 95 86 90 98 98 97 99 96 94 95 95 97 98 98 97 99 98 46 16
94 90 86 86 85 93 98 96 94 94 91 94 94 96 92 86 85 85 95 97 96 95 97 100 98 30 14
93 95 90 90 92 93 95 92 91 97 91 95 96 89 79 74 91 96 90 94 96 94 97 100 46 17 13

GFSFLT2_700_rhum_033.txt.gz
RH
6 4 5 7 12 20 28 30 23 21 23 29 38 45 46 46 45 37 29 31 59 100 100 100 97 97 94
4 7 9 14 23 25 22 22 31 50 61 64 61 59 65 66 64 61 60 60 64 48 79 98 98 97 98
10 10 14 24 24 25 32 50 62 63 69 67 71 75 74 73 72 70 69 69 67 63 63 56 37 75 95
18 19 27 29 32 50 56 62 65 67 63 66 73 73 72 76 71 69 70 67 63 61 62 62 58 46 30
31 34 32 41 61 62 66 64 59 68 60 57 68 64 67 73 75 78 80 81 80 73 63 59 57 58 53
33 34 58 73 70 70 68 62 38 56 55 41 72 67 79 80 84 84 79 74 74 76 76 74 70 62 56
38 70 75 80 75 68 60 66 56 62 68 48 73 69 81 93 98 87 80 72 73 77 78 78 74 71 64
75 80 85 88 90 84 78 73 60 56 88 62 72 75 88 99 98 94 93 96 94 91 92 93 90 82 68
83 87 89 90 96 92 88 84 74 49 86 68 72 73 96 100 97 94 94 95 92 93 96 96 94 94 90
76 81 87 93 99 100 100 90 90 53 87 69 74 84 56 94 96 97 95 98 97 99 98 96 98 98 93
78 83 87 86 92 97 100 100 96 89 97 88 78 91 93 73 75 87 93 94 91 95 99 99 98 100 92
86 85 81 81 90 92 98 100 100 99 95 94 86 94 95 87 77 75 86 96 93 94 96 96 96 99 99
85 85 86 81 86 86 90 94 96 97 98 96 94 92 100 95 90 88 92 86 95 96 94 90 92 93 91
84 86 83 81 87 88 84 84 83 84 98 96 96 95 95 98 95 88 96 95 92 96 98 98 100 92 34
91 87 86 86 90 92 91 88 88 81 80 97 98 97 97 95 84 86 90 94 97 96 98 83 31 13 24
95 95 91 88 88 92 95 92 86 89 88 91 81 82 88 85 83 74 89 95 97 96 100 61 25 15 10
96 97 93 91 96 93 93 92 88 93 94 91 90 91 83 75 78 96 86 90 96 96 100 68 31 29 22

GFSFLT2_700_rhum_036.txt.gz
RH
7 6 4 6 9 13 19 20 17 21 38 50 51 50 53 52 51 52 52 51 50 48 49 82 98 97 90
5 3 5 8 14 23 22 22 40 46 53 58 55 55 57 59 60 62 59 55 54 56 56 57 70 100 98
3 5 8 12 22 23 29 50 54 56 58 65 60 59 59 61 66 64 60 60 57 55 56 58 58 58 63
10 10 11 23 28 40 50 56 57 60 47 50 47 40 42 61 66 68 72 71 68 67 66 64 65 63 55
17 17 22 28 50 58 58 59 51 58 52 41 41 39 62 66 69 74 71 71 73 74 72 69 67 69 71
20 28 32 60 66 65 65 56 41 60 75 36 52 58 71 73 82 73 73 72 79 84 85 83 79 76 75
28 37 67 74 76 70 64 67 61 66 87 39 63 62 74 92 85 86 88 92 94 92 90 88 89 94 89
46 73 81 84 87 81 76 68 55 74 98 53 64 66 72 96 98 100 100 99 96 95 93 91 93 94 92
76 84 86 87 91 84 80 77 71 70 87 64 61 65 72 98 98 90 92 94 96 95 95 98 100 97 92
77 83 87 85 91 97 97 88 84 68 88 66 64 79 53 78 93 87 76 84 88 95 96 98 100 99 95
80 84 84 88 91 95 98 100 91 82 92 87 68 79 88 64 62 78 74 69 84 93 97 97 99 100 96
83 86 84 87 88 91 96 97 98 95 86 92 82 86 86 78 70 67 66 76 95 93 95 98 99 97 99
86 86 91 89 91 91 90 92 90 99 97 93 94 91 96 91 77 66 73 79 99 95 97 100 98 97 89
86 90 90 90 92 94 88 88 81 80 97 98 94 95 92 95 88 78 82 95 94 94 94 99 93 38 18
94 91 89 90 93 97 94 86 85 83 76 84 95 98 98 98 89 82 83 91 98 98 93 97 73 34 20
95 94 91 94 94 93 93 91 86 86 84 84 82 86 89 91 92 78 91 89 96 99 97 97 95 59 35
99 100 95 94 97 94 94 93 88 90 92 90 88 89 80 73 73 96 83 85 90 97 98 100 98 100 56

GFSFLT2_700_rhum_039.txt.gz
RH
8 7 4 3 3 4 9 10 12 15 26 44 47 53 53 52 49 46 44 45 44 46 47 47 52 87 100
5 3 3 4 6 11 14 16 18 39 46 53 54 52 46 42 40 40 43 45 49 50 49 48 48 48 50
3 3 5 9 12 15 21 22 47 52 54 54 46 46 43 43 40 37 39 49 57 56 58 62 64 63 60
4 5 9 13 18 27 28 56 54 58 53 55 54 53 49 40 49 60 61 57 60 69 68 68 66 66 65
7 12 13 16 30 38 60 60 58 60 59 56 55 58 48 62 66 63 61 69 73 81 81 82 81 79 74
15 18 18 30 52 66 68 66 50 60 68 47 69 52 55 66 70 65 76 78 83 85 87 86 86 85 85
20 23 34 66 75 74 71 68 60 66 75 61 66 48 57 68 82 87 90 83 94 97 95 93 90 88 86
27 44 75 78 86 86 79 70 60 63 80 80 64 57 53 67 96 100 95 97 97 84 80 83 92 95 94
57 79 86 90 94 93 78 76 64 50 74 85 64 56 50 64 100 100 100 90 85 82 82 91 97 94 91
76 82 88 89 90 90 90 79 69 50 81 75 67 77 43 51 80 90 89 80 74 70 82 96 95 94 90
80 84 84 84 88 92 95 96 88 77 95 97 71 73 82 57 55 68 71 65 62 68 93 98 97 96 93
81 81 83 87 90 92 94 98 98 95 91 97 82 80 75 68 63 60 71 69 68 84 99 89 97 97 97
84 87 90 89 91 94 91 94 88 96 98 98 91 84 88 84 77 69 72 60 76 94 90 93 96 95 67
89 90 90 92 95 98 90 91 84 84 93 97 92 93 88 90 94 84 87 86 84 93 98 92 94 92 88
94 92 93 93 96 99 98 92 90 86 78 84 89 93 95 98 94 95 88 74 91 93 95 93 91 93 88
94 94 90 90 92 94 98 97 89 85 83 85 80 76 79 92 97 94 85 80 85 88 97 94 82 93 95
93 94 93 90 95 94 91 91 86 85 86 88 86 91 83 71 76 99 84 81 81 79 96 98 86 91 92

GFSFLT2_700_rhum_042.txt.gz
RH
8 6 5 4 4 4 4 5 7 9 12 19 41 45 50 53 47 41 33 30 32 33 36 40 42 46 61
5 4 4 4 4 5 6 10 11 13 28 48 53 56 55 45 42 41 34 31 30 28 29 34 44 49 51
5 5 5 5 5 8 13 13 17 37 56 57 60 57 54 53 56 51 46 35 30 40 52 54 57 59 59
5 4 5 6 12 15 12 23 38 55 59 60 59 58 54 61 62 57 49 45 51 56 63 67 66 68 69
4 5 7 13 18 23 39 52 54 62 59 47 62 51 57 66 65 61 62 58 61 71 76 78 77 76 74
8 9 14 18 39 63 64 62 56 60 58 46 68 48 60 63 66 66 62 61 70 80 83 82 80 78 78
14 18 20 52 73 77 76 73 64 61 71 55 59 46 56 55 71 74 71 78 89 86 89 91 91 80 70
19 27 63 79 83 87 81 77 62 65 74 65 54 47 52 53 68 78 87 93 95 94 95 88 77 70 66
42 75 81 85 91 91 83 74 64 62 69 80 60 49 43 44 61 80 100 100 98 95 90 81 73 69 72
74 78 83 87 89 93 93 87 79 61 81 74 62 69 39 39 43 68 93 98 95 91 80 71 71 79 85
76 79 80 85 88 95 95 94 87 77 98 94 74 76 76 50 40 56 82 84 80 74 72 77 85 92 84
78 80 80 82 83 88 89 95 97 97 95 98 86 86 78 66 52 52 75 81 71 66 66 69 88 90 87
80 80 81 83 85 89 90 94 88 98 98 100 97 90 91 82 74 66 72 69 73 70 68 77 88 87 84
82 85 86 86 88 95 89 89 84 83 94 99 97 95 89 91 90 84 88 71 62 65 70 81 82 97 96
90 88 88 89 90 95 96 88 82 80 77 87 94 91 89 96 93 93 85 71 70 65 75 77 82 99 94
93 94 92 90 89 89 91 92 87 84 83 87 84 73 70 78 97 92 87 71 65 72 81 83 80 96 98
94 94 92 89 91 94 93 92 88 88 88 89 84 86 78 66 82 99 91 73 75 76 80 81 83 91 97

GFSFLT2_700_rhum_048.txt.gz
RH
16 16 13 9 6 6 4 4 3 3 3 4 4 4 6 7 9 15 27 37 40 44 43 40 39 38 39
15 12 8 6 5 4 3 4 4 5 5 6 7 8 13 25 35 44 47 45 43 37 35 38 37 36 37
9 6 6 4 4 4 4 4 6 7 8 15 32 41 48 48 49 52 48 42 38 40 37 33 37 40 39
6 5 4 4 4 5 4 6 6 18 43 47 55 57 58 56 54 50 45 45 49 44 36 39 45 40 40
4 4 4 4 5 5 7 17 36 55 52 47 56 56 61 60 56 51 53 54 51 45 40 46 46 45 40
4 5 5 5 13 29 42 44 33 50 50 43 54 51 54 56 55 56 58 56 55 54 49 49 50 50 49
5 6 17 34 45 44 45 44 42 53 56 42 66 56 60 58 63 67 67 65 66 62 55 50 49 48 51
13 35 45 47 48 47 49 48 46 57 72 50 64 56 60 63 71 76 75 75 76 69 58 49 48 52 56
47 50 53 57 62 60 63 58 53 56 76 72 68 61 57 56 70 75 79 80 76 70 66 54 46 51 60
49 54 59 67 75 76 76 72 72 55 76 74 73 77 46 46 50 61 69 76 73 76 73 62 55 59 61
48 60 69 75 80 87 92 89 81 76 90 94 79 82 78 54 50 61 64 67 70 70 79 78 69 70 69
59 66 70 78 83 87 90 92 94 91 93 100 95 94 84 68 61 58 64 67 68 74 79 81 82 83 82
59 66 70 74 80 84 92 96 91 96 98 100 99 96 90 78 67 61 69 64 80 76 77 75 73 77 80
62 69 75 81 82 85 81 85 82 84 96 98 95 92 84 80 75 69 84 82 83 86 79 69 70 69 68
70 74 78 81 83 89 92 88 85 79 75 87 93 90 86 88 82 84 93 94 91 79 76 68 68 71 71
72 76 80 83 83 86 89 88 84 83 81 85 81 78 81 84 98 92 85 77 74 75 80 75 64 75 89
74 82 84 87 90 91 91 90 85 87 88 94 89 91 84 76 81 99 96 98 100 87 82 81 74 70 77

GFSFLT2_700_rhum_051.txt.gz
RH
72 27 18 18 14 10 6 6 4 3 3 3 3 3 3 4 4 5 6 8 10 17 25 29 37 37 37
20 18 16 11 7 6 4 3 3 3 3 4 4 5 5 8 15 24 29 32 37 39 41 41 40 35 33
17 13 8 6 4 3 3 3 3 4 7 13 22 34 39 40 42 42 43 43 45 46 46 43 36 33 36
8 6 4 3 3 3 3 4 13 27 34 33 33 39 43 49 49 48 49 50 51 50 46 41 35 33 39
4 3 3 4 4 4 11 21 18 26 24 23 29 35 45 49 51 53 56 55 55 52 50 48 42 37 37
4 4 5 4 9 26 19 17 15 29 33 31 41 42 47 44 47 51 57 61 63 63 60 52 45 40 42
5 5 5 32 28 20 21 26 30 40 51 34 50 47 55 57 63 67 71 73 67 62 58 57 55 48 44
5 15 32 27 26 30 36 39 40 54 70 51 60 54 58 59 72 76 82 80 78 75 73 67 61 56 51
32 32 31 37 46 47 55 54 49 56 70 82 66 63 60 56 67 73 73 75 80 80 77 73 67 57 48
37 42 48 55 65 69 70 67 74 63 77 82 67 79 53 48 52 61 63 70 73 73 76 74 68 57 46
42 49 57 63 68 78 87 89 87 84 98 98 73 77 77 58 51 61 66 66 70 69 72 69 64 62 54
45 52 54 60 68 77 82 86 87 90 88 97 88 87 80 67 62 61 64 70 71 69 72 73 75 76 73
52 57 60 61 73 80 84 86 84 96 97 100 99 92 88 80 72 62 66 68 79 75 76 76 77 83 81
59 62 64 69 78 81 80 82 76 78 92 99 95 88 80 79 75 72 83 74 83 89 79 71 74 76 75
68 69 69 72 79 85 86 82 79 74 71 86 93 90 88 93 87 84 87 85 82 82 83 80 81 86 87
74 76 74 78 77 81 86 89 84 84 88 93 91 84 81 80 96 92 88 86 87 84 86 78 66 83 92
78 83 85 82 84 88 86 86 83 85 91 96 89 92 83 72 89 98 93 86 92 85 89 91 81 82 86

GFSFLT2_700_rhum_054.txt.gz
RH
99 99 90 47 20 18 13 8 6 4 3 3 2 2 2 3 5 8 11 14 16 18 22 24 26 28 29
91 54 20 18 14 8 6 4 3 3 3 3 3 8 15 18 17 16 16 17 18 23 27 31 36 40 40
23 18 15 8 5 4 3 3 3 3 6 15 21 20 18 17 17 17 18 17 16 18 22 29 38 44 44
15 9 6 4 4 3 3 3 4 18 21 18 18 23 28 30 29 29 28 26 25 25 28 34 38 40 40
6 4 4 4 4 4 3 9 16 18 21 25 31 34 44 45 45 47 46 45 42 40 41 45 48 48 45
4 4 4 4 4 6 16 17 19 28 27 27 41 40 49 48 54 56 57 57 57 54 53 53 55 56 53
4 5 5 5 15 19 23 28 29 37 38 28 48 47 54 57 64 70 72 70 66 62 59 60 61 60 59
6 6 11 26 26 28 32 33 36 44 59 40 57 49 54 56 64 77 79 76 75 73 73 72 63 60 62
6 22 31 35 39 38 44 42 40 47 61 65 54 51 49 47 57 65 78 91 84 77 76 70 68 65 59
38 38 43 46 48 50 49 50 55 49 68 65 62 63 38 40 47 59 67 73 74 75 72 68 66 61 56
42 46 48 53 57 59 60 63 64 67 78 74 60 66 62 46 43 58 62 67 68 66 71 72 68 65 59
44 50 57 62 64 62 66 66 70 84 80 81 67 71 63 56 50 53 69 74 72 72 73 75 77 77 74
50 60 64 65 66 64 71 70 74 89 94 91 78 73 80 81 78 74 77 70 88 82 75 74 79 84 85
60 62 66 71 73 71 68 70 72 77 91 100 98 96 94 93 85 78 84 79 86 90 82 78 80 85 87
62 64 68 70 77 80 78 73 72 72 77 90 96 97 99 98 96 99 97 89 88 82 82 81 90 96 96
64 65 70 75 73 79 80 82 79 78 81 89 92 92 88 89 95 87 79 76 74 79 84 76 77 97 92
67 70 76 81 81 84 84 82 76 80 83 88 89 95 90 77 88 98 88 86 79 78 90 96 94 97 94

GFSFLT2_700_rhum_057.txt.gz
RH
99 98 99 98 98 91 62 24 18 10 6 4 4 3 3 2 2 3 6 9 11 10 10 10 12 14 18
98 97 97 97 91 65 18 11 6 4 3 3 3 2 4 9 11 10 10 10 11 11 12 13 13 15 19
97 92 52 18 16 10 6 4 4 4 3 4 8 14 14 15 16 16 16 17 18 18 19 20 21 21 23
79 35 16 11 7 5 4 4 4 5 11 15 18 22 26 28 25 28 31 32 33 33 31 30 30 30 29
17 12 7 6 5 4 4 4 7 18 21 28 32 34 41 41 42 46 46 48 50 50 48 45 42 42 44
8 7 6 5 5 5 5 12 16 27 27 30 38 37 37 43 47 50 55 58 58 58 57 55 54 55 56
6 6 5 6 5 6 20 25 27 38 38 29 39 31 38 40 50 54 56 56 56 58 60 61 63 69 67
6 6 6 6 16 26 32 34 40 45 40 30 34 32 32 36 46 55 64 65 63 65 68 73 75 72 64
8 7 9 26 31 34 44 47 42 43 50 42 40 33 25 28 39 53 58 63 67 67 70 74 72 68 62
9 27 32 38 43 49 51 48 46 44 58 48 47 52 38 36 37 50 51 62 67 68 67 67 66 62 56
35 38 42 51 58 59 59 54 54 60 73 67 57 62 61 55 52 66 72 73 71 69 73 70 66 68 64
38 47 56 61 64 64 64 60 63 73 76 82 72 75 72 71 63 66 73 71 73 68 70 74 79 80 78
47 52 56 58 56 55 68 68 73 85 90 91 88 82 83 81 82 81 79 68 81 77 72 73 77 83 83
47 51 52 57 64 64 62 59 57 73 89 87 83 79 82 87 90 89 97 88 82 75 70 71 79 86 92
47 52 55 61 70 72 74 78 82 74 71 83 84 80 87 91 84 93 85 75 75 77 79 76 84 91 85
51 53 57 61 59 62 64 71 79 86 75 80 81 78 83 82 93 84 71 68 74 80 85 81 91 98 90
52 55 57 61 63 61 60 62 77 57 50 72 74 75 80 69 76 97 80 84 80 85 88 94 94 98 97

GFSFLT2_700_rhum_060.txt.gz
RH
100 98 97 98 98 97 98 98 96 88 48 23 16 10 6 5 4 4 3 3 3 5 7 8 8 8 8
98 97 97 99 97 97 96 96 78 18 13 7 5 4 4 3 3 3 5 8 10 11 12 14 14 14 13
96 92 93 97 97 87 38 17 12 6 5 4 4 4 4 7 9 12 13 17 21 23 23 23 23 24 24
97 99 93 40 18 16 11 7 6 5 4 4 6 13 20 19 20 25 26 25 22 20 22 25 27 30 32
65 21 18 14 9 7 7 6 5 5 7 14 22 27 32 33 32 28 24 21 21 26 26 28 31 34 38
17 12 9 8 7 6 5 6 6 26 28 29 40 37 33 28 28 24 24 26 28 28 26 25 28 34 39
8 7 6 6 6 6 7 15 27 37 38 36 38 29 36 38 31 29 26 26 30 29 26 28 31 34 43
4 4 5 6 6 16 28 31 41 48 43 34 38 42 49 45 42 31 32 37 39 40 38 36 39 39 41
4 5 6 14 23 29 39 44 43 48 51 42 43 46 48 49 54 58 53 49 50 50 49 49 45 47 48
6 14 22 28 36 41 43 40 42 44 53 45 44 45 40 48 52 60 67 71 68 70 68 68 65 58 49
18 24 32 40 43 44 40 36 44 54 68 57 50 54 48 47 52 61 71 72 70 70 68 69 69 68 65
27 34 41 46 46 46 48 49 54 60 68 69 58 64 61 55 55 65 76 69 68 74 71 71 74 77 78
36 41 46 49 50 54 57 59 69 79 88 92 80 69 67 62 60 71 83 72 82 72 67 67 71 75 76
41 46 50 50 51 54 54 53 54 62 77 84 68 59 64 67 66 74 91 83 83 76 72 77 81 88 82
43 48 50 51 55 53 53 52 53 54 63 61 38 37 53 66 67 87 81 78 74 75 80 79 97 96 88
48 51 52 56 58 59 53 49 54 65 66 52 45 42 47 63 78 82 86 73 68 71 78 76 88 97 95
53 54 55 58 56 49 47 48 58 66 66 68 56 47 50 53 63 95 79 75 74 74 84 85 84 90 90

GFSFLT2_700_rhum_063.txt.gz
RH
94 99 98 99 98 95 94 92 92 89 92 97 100 97 68 25 12 8 6 5 4 4 4 4 5 6 6
99 96 94 96 94 88 91 96 100 100 97 53 18 14 9 6 5 5 5 4 5 6 7 9 10 12 15
98 97 98 91 96 100 99 92 45 18 15 10 7 6 5 5 5 5 7 11 13 14 17 18 19 18 15
100 94 95 98 95 64 21 16 10 8 7 6 5 5 6 9 14 18 22 24 23 21 18 15 14 12 11
96 91 88 36 18 11 8 6 5 5 5 5 7 13 22 30 34 34 28 22 22 22 19 17 14 12 13
29 18 10 8 5 3 4 4 5 10 13 24 28 33 38 34 29 29 33 34 30 23 19 17 17 15 16
8 5 2 2 2 4 5 10 20 27 31 37 34 26 28 33 38 41 42 43 39 27 23 23 22 21 19
2 2 2 3 5 11 19 26 35 33 25 20 25 26 30 33 43 50 53 54 54 50 44 40 40 37 33
2 3 5 10 16 24 31 31 28 27 30 24 29 28 31 37 44 54 61 63 62 60 58 57 60 61 54
4 8 15 20 26 31 35 34 31 34 36 38 38 38 22 28 33 44 54 64 64 64 64 64 65 63 57
11 16 22 27 30 36 37 39 42 49 56 52 51 52 40 28 27 42 51 56 61 64 67 64 63 67 65
18 23 28 29 34 36 38 44 47 51 54 53 48 55 48 30 27 35 52 62 69 65 64 66 66 65 66
25 29 31 34 39 41 44 49 48 52 56 58 56 63 49 41 35 36 45 56 83 74 70 64 65 70 70
32 34 38 42 45 44 47 47 46 49 51 62 65 61 57 56 45 44 55 59 74 84 76 70 76 83 81
37 40 43 46 48 50 49 48 43 41 47 65 69 64 63 59 42 54 55 58 70 66 69 72 74 90 92
42 44 46 49 50 52 51 44 42 44 48 55 61 61 58 41 41 48 51 58 74 75 77 70 66 95 91
49 50 51 52 53 53 46 45 47 50 53 57 61 61 54 38 32 66 73 64 66 74 84 82 71 77 91

GFSFLT2_700_rhum_066.txt.gz
RH
97 100 100 98 99 95 99 96 95 97 98 93 87 82 83 80 52 26 16 12 9 8 7 6 5 5 5
100 93 99 99 99 99 100 99 91 87 88 84 44 22 17 12 10 8 7 6 6 5 5 5 6 7 8
100 96 97 98 94 96 90 90 66 25 17 12 9 8 7 6 5 4 5 5 7 9 12 15 19 23 23
92 98 99 91 87 82 45 17 11 7 5 3 3 3 4 6 10 14 18 21 24 25 24 21 18 18 18
97 90 82 56 23 13 7 4 2 2 2 4 8 14 20 26 29 28 24 21 20 23 28 31 31 27 17
50 20 14 8 6 2 2 1 3 6 12 19 16 20 20 20 21 23 25 30 36 36 37 37 37 31 18
10 7 4 2 2 2 2 6 12 16 16 20 15 17 19 22 26 28 31 35 39 44 45 44 44 43 43
2 2 2 2 2 4 9 18 22 20 14 18 19 23 24 27 28 33 38 40 46 49 52 53 52 51 53
2 2 2 3 6 13 19 23 25 24 20 23 29 29 36 39 36 42 48 50 50 50 54 58 60 62 61
2 3 4 8 14 20 23 26 27 32 29 33 34 29 26 37 32 28 30 40 44 48 56 62 63 62 61
3 4 12 17 22 24 29 32 33 37 37 31 35 34 34 33 40 44 38 33 34 42 51 61 63 65 64
8 15 20 25 28 30 33 37 39 44 43 36 33 36 36 36 36 44 40 37 38 41 48 64 67 67 64
20 23 26 29 32 33 38 40 45 49 49 45 39 39 40 41 38 43 34 31 47 44 47 62 66 64 64
26 28 30 34 37 38 43 45 49 55 54 47 46 45 43 44 44 40 34 30 41 55 53 69 73 74 73
33 37 40 43 46 49 51 52 52 51 47 50 52 53 52 51 49 48 40 33 44 44 40 47 67 77 79
40 44 48 50 52 55 56 55 53 47 48 56 58 56 55 54 59 50 47 38 36 44 48 46 60 79 80
45 50 53 56 58 58 57 56 51 52 59 62 61 58 54 57 57 64 58 57 45 49 60 58 52 74 80

GFSFLT2_700_rhum_069.txt.gz
RH
100 99 100 98 99 96 99 100 100 100 100 99 91 89 82 69 44 26 21 18 14 11 9 8 8 7 7
97 99 98 100 100 100 100 99 98 98 94 89 56 22 16 10 8 8 6 5 4 3 3 3 4 5 6
98 100 95 95 100 99 98 98 95 80 34 14 9 6 3 2 2 2 4 6 8 9 11 14 16 20 22
100 99 100 100 99 97 96 63 20 12 6 4 2 2 3 8 12 12 11 11 12 13 14 14 15 16 18
99 100 100 93 63 24 14 9 5 3 2 2 4 12 14 12 11 10 10 11 12 15 18 21 25 30 31
95 42 21 12 9 6 4 2 2 2 4 11 18 17 15 14 13 11 12 14 16 18 20 22 26 32 37
14 8 5 3 3 2 2 2 2 8 17 22 19 18 20 20 19 18 16 15 16 17 19 21 26 34 41
2 2 2 2 2 2 2 4 12 16 20 23 22 25 33 31 30 29 25 22 22 20 22 23 27 30 40
2 2 2 2 2 3 6 16 21 21 22 25 26 30 33 36 36 38 37 33 34 31 27 28 31 35 43
2 3 3 3 4 10 18 25 30 31 27 29 31 28 28 37 41 43 42 42 41 38 34 33 34 39 51
3 3 4 6 14 21 27 30 32 34 30 30 36 31 27 28 38 37 37 41 42 37 32 33 35 42 50
6 9 14 21 25 28 29 31 34 38 37 34 37 34 31 31 33 38 38 39 36 32 29 34 42 44 57
18 20 22 24 27 30 34 36 39 42 41 42 41 37 36 38 38 44 40 43 43 38 30 34 42 47 62
22 24 27 31 36 37 39 41 46 50 49 49 46 40 43 48 48 49 49 49 48 46 36 35 46 48 61
28 32 35 38 41 43 44 47 49 52 56 53 47 48 52 52 50 53 53 56 54 50 45 37 42 48 54
33 35 39 42 48 52 55 56 54 56 57 53 54 56 56 58 60 59 61 59 52 49 49 42 37 45 47
37 40 46 52 59 63 64 65 67 67 67 65 64 62 59 60 63 75 68 65 58 52 54 49 43 43 50

GFSFLT2_700_rhum_072.txt.gz
RH
66 91 99 89 98 99 98 98 99 99 100 98 100 98 98 95 88 82 56 29 17 12 9 7 6 5 4
96 94 93 98 100 98 96 98 99 98 98 100 97 94 89 53 19 11 7 4 2 2 2 3 4 5 5
91 96 98 97 99 99 99 99 99 100 100 94 68 24 11 6 3 2 2 4 7 9 9 9 9 10 12
98 98 99 99 100 99 98 98 90 58 28 12 8 4 2 2 2 8 9 8 7 8 8 9 11 13 14
99 99 94 98 79 47 24 16 11 8 5 4 3 2 2 9 12 10 10 10 10 10 10 10 11 13 15
60 46 36 20 12 8 6 4 3 3 2 2 2 5 15 15 12 13 14 14 14 14 14 14 13 13 15
4 4 3 2 2 2 2 2 2 2 3 4 14 22 19 16 18 20 20 19 19 21 21 22 22 20 17
2 2 2 2 2 2 2 2 3 3 9 22 27 25 22 24 27 26 25 23 23 24 23 26 27 26 22
3 2 2 3 3 3 3 3 5 12 24 34 34 33 32 32 32 33 28 26 24 25 28 31 30 28 26
3 3 3 3 3 4 5 9 22 31 32 34 36 36 40 40 38 37 33 30 31 31 31 33 30 27 26
4 5 6 7 8 12 18 24 29 33 33 35 37 37 41 39 38 39 38 37 34 36 36 36 33 28 25
7 9 11 14 18 22 26 32 34 35 35 32 38 42 43 41 37 39 40 40 40 41 43 42 40 32 26
11 14 16 19 22 26 30 32 33 36 37 39 44 48 46 43 37 40 42 46 47 45 48 47 43 41 30
16 20 22 25 28 31 33 35 40 43 42 43 46 48 49 44 42 48 48 44 47 50 52 52 47 47 41
22 25 27 30 34 37 40 46 48 53 56 54 51 52 50 48 48 55 52 54 56 60 62 55 48 48 46
27 29 31 34 39 44 48 55 58 62 64 68 68 66 62 61 62 64 65 66 66 67 67 54 42 49 47
32 33 34 37 42 50 55 59 63 65 68 71 74 70 64 61 67 72 73 71 61 60 60 54 43 44 44

GFSFLT2_700_rhum_078.txt.gz
RH
37 42 54 63 67 72 88 91 94 98 99 99 100 99 99 99 99 97 99 97 98 99 100 99 96 85 57
46 55 57 61 67 72 85 86 91 95 93 98 100 100 93 90 96 95 95 97 98 99 96 71 29 12 5
57 65 65 66 64 72 76 92 93 100 100 95 91 88 86 87 90 94 97 94 84 47 18 8 3 2 5
13 15 36 22 39 40 47 53 54 58 49 45 44 46 54 45 40 30 21 13 8 5 3 2 6 10 9
5 4 3 3 3 3 3 3 4 4 5 5 6 7 6 5 5 4 4 3 3 3 8 13 11 11 11
14 11 9 8 6 5 3 2 2 2 2 2 2 2 2 2 2 2 3 3 8 17 15 14 15 17 18
22 19 15 12 8 5 4 3 3 3 2 2 2 2 2 2 3 5 12 20 19 18 20 23 25 25 25
21 16 11 7 5 4 3 3 3 3 3 3 3 4 4 7 15 24 25 22 21 22 23 25 26 26 28
16 11 8 6 4 4 4 4 5 6 6 7 8 11 15 20 24 27 26 24 24 24 27 28 29 31 33
10 7 5 4 4 5 6 7 8 9 11 13 18 23 25 26 27 28 29 29 29 30 31 31 31 32 33
11 9 6 5 5 6 8 10 11 13 15 19 23 27 27 28 34 36 35 34 33 35 34 34 32 32 35
11 9 8 6 7 8 11 13 15 19 22 23 24 28 27 29 32 42 43 41 41 41 39 37 37 39 40
12 10 9 8 9 12 15 17 20 24 27 29 30 31 32 35 35 40 44 52 53 49 44 41 42 45 45
15 12 10 10 11 14 18 20 23 26 28 31 34 35 37 44 47 49 51 50 50 48 46 47 49 51 55
22 14 12 12 14 18 23 25 26 30 35 37 42 43 44 45 50 60 60 61 63 60 58 56 60 63 64
40 22 16 15 17 21 27 30 31 34 38 42 48 53 56 57 58 58 60 70 73 70 66 57 53 62 57
64 40 23 20 21 23 28 35 42 43 45 49 57 61 60 62 67 68 73 82 73 68 65 58 48 52 53

GFSFLT2_700_rhum_081.txt.gz
RH
48 48 44 54 54 56 56 61 69 73 72 82 87 92 98 99 97 97 98 98 97 98 97 98 97 97 97
43 42 53 58 59 61 59 58 62 68 74 77 86 88 96 96 98 90 91 94 94 95 99 99 99 95 82
8 6 6 16 11 8 19 24 34 40 50 57 56 52 62 76 79 80 79 80 85 84 84 70 48 26 13
8 10 9 8 7 6 4 4 3 3 3 5 8 9 10 11 12 12 17 18 17 13 11 8 6 4 3
18 19 19 18 16 14 11 9 8 5 4 3 3 3 3 2 2 3 3 3 3 3 3 3 3 5 11
24 25 25 23 21 18 15 11 8 5 3 3 3 2 2 2 2 2 2 2 2 2 3 11 17 15 14
29 28 26 22 18 12 8 6 4 3 3 3 3 3 3 3 3 3 3 3 8 16 18 17 17 19 22
27 24 20 13 9 5 4 4 4 4 4 4 5 5 5 6 7 8 13 18 20 20 19 21 24 25 26
25 20 16 13 10 8 6 5 4 5 6 7 7 8 9 11 15 20 24 25 25 25 26 28 28 29 28
24 20 17 16 14 11 8 6 6 7 8 9 11 13 15 18 21 23 24 24 24 24 26 29 32 32 31
26 22 19 18 16 14 10 8 8 8 10 12 14 16 19 22 25 25 25 24 23 23 22 27 32 34 34
34 31 27 22 18 14 12 10 10 12 12 14 17 19 21 25 28 35 35 33 30 31 30 32 34 36 36
46 44 39 34 26 19 15 12 12 13 14 17 19 21 23 26 29 35 40 49 44 40 40 39 40 41 41
57 56 53 45 35 25 19 15 15 17 18 19 22 25 28 32 35 43 48 51 55 58 55 52 51 49 48
64 62 61 58 52 41 27 19 18 21 24 23 25 29 34 37 40 49 54 58 62 64 64 63 65 64 60
68 67 66 64 58 45 33 24 22 25 31 35 35 37 39 44 50 52 59 64 69 70 66 61 66 72 65
71 68 68 68 62 48 37 30 29 30 33 34 39 42 44 51 60 67 72 79 79 80 79 75 65 66 62

GFSFLT2_700_rhum_084.txt.gz
RH
46 45 36 47 52 51 50 56 56 57 61 66 71 73 82 88 91 90 91 93 99 97 96 97 98 96 96
49 15 6 7 16 8 7 23 30 49 50 53 64 68 70 71 73 81 83 92 90 93 97 100 97 97 98
8 6 8 10 10 9 8 6 5 5 4 6 14 40 46 44 45 57 73 76 77 73 71 74 75 71 56
14 15 17 18 18 18 17 15 14 12 8 6 4 3 3 3 4 4 4 5 5 5 6 6 6 7 6
21 22 23 24 24 24 22 20 18 14 11 8 6 4 3 3 3 2 2 2 2 2 2 2 2 3 3
26 28 28 28 27 24 22 20 16 12 10 7 4 3 3 3 3 3 3 3 2 2 2 2 2 4 8
29 28 27 25 22 18 12 8 6 4 4 3 3 3 4 4 4 4 4 4 4 4 7 12 15 16 16
29 27 25 22 19 16 14 12 10 9 6 5 5 5 5 5 6 6 6 7 8 13 17 19 19 20 21
30 27 24 22 19 18 18 17 15 12 9 8 8 7 7 8 9 10 12 14 18 20 22 23 24 25 26
33 29 26 24 23 23 23 22 20 17 13 12 9 9 9 10 12 15 17 20 22 23 25 26 28 30 30
38 35 34 33 32 32 30 29 26 22 17 14 11 11 11 13 16 17 19 20 21 22 22 23 27 28 28
44 45 47 48 47 44 40 36 33 29 25 18 14 14 15 18 20 23 22 23 23 25 26 29 31 33 34
46 54 55 54 53 52 49 46 41 35 28 21 17 17 19 20 22 24 28 34 34 37 34 35 37 38 38
44 57 61 58 57 56 55 52 49 42 34 24 21 22 24 25 25 28 30 34 41 46 51 53 47 45 47
44 60 66 62 60 59 57 57 54 46 38 32 27 25 28 31 33 34 34 36 42 49 54 59 64 61 56
52 68 69 66 64 62 61 60 58 51 43 36 33 31 30 35 38 41 43 50 57 59 60 60 69 76 72
56 72 72 70 68 66 65 65 62 56 50 42 36 35 35 37 40 42 46 49 49 54 62 65 65 76 79

GFSFLT2_700_rhum_087.txt.gz
RH
42 44 45 15 27 29 25 20 30 40 45 50 51 55 66 68 73 82 90 92 89 92 92 90 90 88 88
46 47 15 6 7 7 8 8 7 6 6 7 9 8 29 60 67 74 68 63 73 80 84 85 93 95 96
8 8 10 13 14 15 16 16 16 15 14 11 9 7 5 4 8 16 14 11 11 16 28 44 54 60 77
16 17 18 19 20 21 22 22 22 21 19 18 16 13 10 7 5 4 4 3 3 3 3 3 4 6 10
20 21 23 25 27 27 26 25 24 22 20 17 14 12 8 5 3 3 3 3 3 3 3 3 2 2 2
26 27 28 28 26 25 23 22 20 14 12 9 7 5 5 4 3 3 4 4 4 4 4 3 3 2 2
29 28 27 26 25 23 20 18 16 14 13 12 11 8 6 4 4 4 5 5 5 4 4 4 5 7 10
29 29 29 27 24 23 21 20 20 19 19 18 16 14 12 10 8 7 6 6 6 6 7 9 12 15 17
31 32 31 28 26 24 24 24 26 26 26 25 22 19 16 14 11 9 8 8 8 9 10 13 15 19 21
36 36 35 33 30 30 30 33 35 35 31 31 29 27 23 20 16 12 10 10 11 12 14 16 18 20 22
39 40 40 41 42 44 45 44 43 42 39 37 36 33 28 22 19 15 13 13 14 15 16 18 18 18 20
40 40 42 48 52 52 50 49 48 46 44 44 43 40 34 27 21 19 16 15 15 16 19 21 22 23 25
38 40 42 46 55 58 55 53 52 50 48 46 47 45 39 32 28 23 21 21 19 20 22 24 27 29 33
36 40 43 48 58 63 60 57 56 52 50 50 51 50 45 38 33 28 26 25 26 26 26 30 33 35 36
31 34 38 49 62 66 64 62 60 57 56 57 56 54 51 46 39 35 34 35 35 36 36 37 42 48 52
28 31 36 49 68 71 69 67 65 63 62 62 61 60 57 49 45 44 41 38 36 34 36 36 40 51 56
27 30 36 53 74 73 69 69 68 67 68 68 67 65 60 53 48 45 44 45 46 52 55 56 52 58 56

GFSFLT2_700_rhum_090.txt.gz
RH
40 40 39 42 14 7 6 7 7 6 6 7 9 12 10 11 39 61 72 87 86 81 75 74 83 85 87
41 41 38 16 7 10 12 13 13 14 14 13 12 10 9 7 5 12 35 45 44 32 18 27 60 64 68
14 8 9 12 14 16 18 19 20 20 21 21 20 19 17 15 12 9 7 5 4 4 4 3 3 4 9
14 16 18 19 20 22 24 25 25 24 24 23 22 20 18 15 11 8 6 4 3 3 3 3 3 3 2
19 20 22 24 26 26 25 25 24 22 21 18 16 14 12 10 8 6 4 3 4 4 4 4 4 4 3
22 26 28 27 26 25 24 23 21 18 16 15 13 12 11 9 5 4 4 4 4 5 5 5 5 4 4
29 28 28 27 27 26 24 22 21 20 19 19 19 18 17 16 14 12 10 9 8 7 6 6 6 5 5
30 29 28 29 29 28 25 23 22 23 24 26 27 26 24 22 22 19 17 15 13 11 9 8 7 8 9
30 30 32 34 33 31 29 28 28 30 32 35 33 32 31 30 28 27 26 23 18 14 11 10 10 11 13
32 36 37 38 37 37 36 36 39 42 40 38 38 36 36 35 33 34 30 26 21 17 14 12 12 13 15
36 37 39 40 40 43 47 49 48 45 45 43 43 43 42 42 39 39 34 31 26 20 14 14 14 15 16
35 37 39 42 43 44 48 53 55 52 49 49 47 44 43 45 46 42 40 37 34 29 23 18 17 18 19
33 34 37 41 43 45 49 55 60 59 55 53 49 47 47 49 50 48 44 41 39 34 30 26 24 24 24
29 30 32 34 36 39 48 59 65 62 60 58 55 54 55 55 55 54 52 47 42 40 38 36 35 35 34
25 27 28 30 32 36 47 63 67 65 65 63 60 60 61 61 61 59 54 49 47 46 43 39 36 36 35
24 29 31 29 33 35 43 64 71 66 65 64 64 64 65 65 63 60 57 54 50 46 42 39 43 47 47
23 48 76 89 56 59 65 62 78 73 70 69 68 66 66 70 70 64 60 55 50 45 44 43 39 40 37

GFSFLT2_700_rhum_093.txt.gz
RH
37 42 41 39 40 34 7 6 9 10 11 11 10 9 9 8 8 6 12 36 48 65 60 57 51 69 77
42 40 40 40 38 8 9 13 15 17 17 18 18 18 17 16 15 14 12 8 13 29 30 18 7 6 23
42 34 21 9 10 14 17 20 21 22 23 24 24 23 22 21 18 16 14 12 9 7 5 4 3 3 3
11 10 13 17 19 20 23 25 26 25 24 23 22 20 19 17 16 14 10 7 4 3 3 3 4 4 4
14 18 19 21 24 27 27 26 24 23 22 18 16 13 12 9 6 5 4 4 4 4 4 4 5 5 6
20 20 23 28 28 27 26 26 24 22 19 19 18 18 17 17 16 15 14 12 10 9 8 8 7 6 6
20 27 30 29 28 28 28 27 24 22 21 20 21 22 23 25 24 23 22 21 19 17 16 14 12 10 9
29 32 31 29 29 30 30 29 26 25 25 26 28 30 31 30 30 30 29 28 28 26 26 24 19 16 12
32 32 30 32 35 35 35 34 32 31 31 33 37 37 35 35 34 33 33 33 34 32 30 27 22 18 15
32 32 34 37 39 40 40 41 43 46 45 44 44 41 40 39 38 37 35 35 36 37 34 31 26 22 18
34 34 36 38 40 42 43 44 46 50 53 52 50 47 45 44 40 39 38 39 41 42 42 39 34 26 21
34 34 35 37 39 43 45 46 48 50 54 58 56 52 51 48 45 44 46 46 47 46 44 43 39 31 26
32 31 32 33 34 36 37 38 43 52 59 60 60 58 56 53 52 54 54 52 52 52 49 47 43 39 34
27 27 28 28 29 31 33 36 40 50 62 64 63 62 61 59 58 58 57 58 59 57 53 49 46 45 43
24 24 24 25 27 29 31 36 47 45 57 69 67 65 64 62 62 61 60 61 60 58 56 54 49 46 42
20 20 21 22 28 52 74 81 83 86 73 74 74 69 68 66 60 60 61 64 63 62 61 57 50 45 42
18 19 20 21 23 38 50 93 92 91 92 86 85 77 69 70 67 65 66 64 65 68 64 57 52 49 42

GFSFLT2_700_rhum_096.txt.gz
RH
29 22 33 43 43 43 42 15 6 9 11 12 12 12 12 11 10 10 8 16 39 45 56 51 45 35 28
22 33 44 45 43 43 31 8 11 14 16 18 18 19 19 18 17 16 15 14 12 12 11 21 16 12 6
33 46 46 44 38 23 9 14 18 20 22 24 24 23 23 22 21 20 18 16 14 12 9 7 5 4 3
47 50 39 18 11 15 19 21 23 26 25 23 22 22 20 19 17 16 15 12 10 8 5 4 3 4 4
49 20 11 17 20 22 25 27 26 25 24 21 19 17 14 12 10 9 7 5 4 4 4 4 4 5 5
10 14 20 21 24 28 28 27 26 25 22 21 20 19 18 18 18 17 17 17 16 14 13 12 11 11 11
18 21 21 28 30 29 29 28 28 26 24 22 21 22 22 24 26 27 26 25 25 24 24 23 22 20 19
21 22 29 32 31 30 30 31 30 29 27 26 26 27 29 32 33 32 31 31 30 29 28 29 29 27 26
22 29 33 32 32 34 36 36 35 34 33 32 33 37 39 38 37 36 35 34 32 30 29 30 32 31 29
26 32 34 34 36 38 40 40 41 42 44 45 46 45 45 43 42 40 39 36 33 33 33 36 37 36 34
33 35 35 36 38 39 41 43 45 46 48 50 51 51 51 50 48 47 44 40 39 42 41 42 43 42 41
36 36 35 36 36 37 39 42 43 43 44 50 56 57 58 57 54 52 48 45 46 50 49 49 48 48 47
34 33 33 32 32 32 33 34 35 37 40 46 55 62 62 61 59 57 54 52 54 54 52 53 53 53 51
31 30 29 28 28 28 28 29 30 33 36 44 52 60 65 64 64 63 59 58 56 53 56 56 55 54 52
26 26 25 24 24 24 24 26 30 46 73 77 86 77 70 68 65 64 62 60 53 53 58 61 61 59 57
21 21 21 21 21 21 21 24 41 69 59 87 90 88 84 77 71 69 64 59 55 57 58 61 65 63 61
17 17 18 18 18 19 19 20 25 61 74 88 84 90 86 86 79 75 68 59 57 60 61 62 64 64 62

GFSFLT2_700_rhum_099.txt.gz
RH
35 34 37 35 30 37 47 45 42 8 9 10 11 12 12 11 13 13 15 33 80 78 88 100 95 75 62
34 31 30 28 36 49 48 47 22 10 13 15 17 18 18 18 17 16 14 13 12 14 20 22 19 20 16
30 29 27 36 51 50 48 38 9 15 18 21 22 23 24 23 22 22 21 20 19 18 15 13 11 9 7
30 29 36 54 53 43 18 14 19 21 24 26 25 24 23 22 21 20 19 18 16 15 13 10 6 4 3
32 40 56 55 19 15 20 22 25 27 26 24 23 21 19 16 15 13 10 8 7 6 5 5 4 4 4
47 60 45 12 19 22 24 29 29 26 26 24 22 20 18 18 17 17 17 16 17 16 16 15 15 14 14
65 36 13 21 22 27 31 30 29 28 27 26 23 21 20 21 22 24 26 26 25 25 25 25 25 25 24
29 15 21 22 29 32 31 30 30 30 29 27 25 25 25 27 29 32 32 31 31 30 30 28 26 27 28
15 21 24 30 34 33 32 34 35 35 34 32 32 31 32 35 38 38 37 36 35 34 32 28 28 26 26
21 24 31 35 35 35 37 39 40 41 41 42 42 44 45 45 45 43 41 40 39 38 35 36 39 36 34
29 29 34 36 36 38 40 41 42 43 45 47 48 49 50 50 52 52 49 47 45 43 40 43 47 44 41
30 31 35 36 37 38 38 38 40 42 42 43 44 48 54 57 57 58 57 55 52 48 46 50 51 47 46
46 32 36 37 37 35 34 34 34 35 35 36 40 44 52 57 61 62 61 59 57 55 54 55 53 48 50
26 33 37 36 34 32 30 29 29 29 30 31 34 52 72 78 70 66 64 62 62 60 59 57 48 45 47
25 30 31 31 30 28 26 25 24 25 25 29 55 68 62 82 85 78 72 67 64 62 61 54 48 46 48
21 23 26 26 25 24 22 22 21 21 21 26 54 51 80 82 84 86 81 74 70 68 63 54 51 48 51
16 18 20 21 20 19 19 18 18 18 19 20 26 64 83 86 84 86 88 84 78 73 63 59 59 62 58

GFSFLT2_700_rhum_102.txt.gz
RH
41 43 44 43 38 36 46 40 48 48 38 13 10 10 11 11 17 38 44 82 94 99 100 69 100 87 100
46 46 43 41 36 36 33 47 53 50 20 10 12 15 16 16 16 18 20 16 36 76 56 88 58 77 79
49 46 40 34 35 33 46 56 53 44 10 14 18 20 22 22 22 20 19 17 16 17 15 16 15 18 14
47 40 34 34 34 46 58 55 52 12 17 21 23 26 26 24 24 23 22 21 20 18 17 16 15 12 8
42 38 35 35 49 58 56 23 16 21 24 27 27 25 24 22 20 19 17 16 15 14 12 9 7 6 5
49 46 40 49 65 43 17 20 23 27 28 27 25 24 21 19 17 15 14 13 13 13 12 12 13 14 14
53 48 59 71 33 16 23 24 30 30 28 27 26 24 22 20 19 19 19 19 21 22 22 23 23 24 24
61 66 69 27 18 23 27 32 31 30 30 28 27 25 23 23 23 25 27 29 30 29 29 28 28 27 24
77 71 25 18 23 29 33 33 32 32 32 32 31 29 29 28 29 32 36 37 35 34 33 32 32 29 30
56 16 18 23 30 35 35 34 35 38 39 39 40 41 43 45 45 45 44 42 40 39 38 37 36 34 38
14 19 24 31 37 36 36 37 40 41 42 44 46 48 49 50 51 52 52 50 49 47 45 43 41 40 44
31 49 44 49 64 45 38 39 40 40 41 44 44 43 43 47 52 58 59 58 57 56 53 50 47 46 49
65 54 46 59 43 39 39 38 40 37 37 39 40 35 37 40 48 66 69 66 62 60 58 56 53 53 54
41 53 46 42 39 40 39 36 34 32 30 29 29 30 32 39 66 51 63 77 73 66 63 62 60 58 57
51 58 45 32 39 39 35 33 31 28 26 25 24 25 28 45 60 49 76 81 81 76 68 65 63 61 56
54 44 31 25 28 30 31 29 27 24 23 22 21 21 23 35 36 55 83 85 82 81 77 70 69 66 54
25 19 20 22 22 22 24 23 22 21 20 19 19 19 19 21 26 69 93 89 85 84 83 80 76 69 57

GFSFLT2_700_rhum_105.txt.gz
RH
48 43 44 47 46 42 39 36 30 31 41 51 35 24 9 13 21 32 44 48 55 88 99 99 98 91 68
47 51 53 54 49 43 37 31 33 36 52 49 16 14 11 13 13 22 37 60 71 70 92 100 98 93 98
48 52 53 54 47 39 32 31 34 52 53 52 11 14 17 18 18 17 18 63 99 99 99 100 100 86 68
47 51 52 47 39 35 32 32 52 59 56 20 13 19 21 23 24 23 20 20 20 21 27 29 28 18 20
48 50 49 44 40 37 36 52 61 60 29 14 21 24 26 26 25 24 23 22 20 19 18 17 16 14 12
48 51 52 49 44 41 53 66 50 19 20 23 27 28 26 24 22 19 17 15 13 12 11 8 6 6 5
52 59 59 53 48 62 68 32 20 22 26 28 28 26 24 22 19 18 17 15 15 14 14 14 16 17 17
63 68 66 61 72 64 22 20 25 29 30 29 28 27 24 22 21 20 20 20 21 23 24 24 24 25 26
70 72 72 77 60 19 21 25 30 32 31 30 29 27 26 25 24 25 26 28 30 32 32 31 30 30 30
80 82 81 42 18 21 28 33 34 34 35 38 64 44 34 34 36 37 38 39 40 39 38 36 36 35 34
85 56 20 17 23 32 35 36 39 58 67 69 46 57 52 50 51 50 50 51 50 48 46 44 42 41 40
26 14 17 26 32 38 52 47 45 53 44 45 74 76 52 47 45 49 54 58 59 58 57 56 53 50 47
30 26 56 63 57 75 62 50 50 41 45 80 51 74 82 82 44 40 48 65 65 67 66 62 60 58 54
46 53 61 53 56 78 66 44 42 39 46 58 34 35 37 37 37 35 54 60 49 67 74 72 66 63 60
19 22 33 44 47 39 36 42 41 40 40 33 30 27 26 25 25 27 39 47 40 74 78 81 76 68 65
42 50 58 60 53 46 32 38 41 39 32 30 27 24 23 22 22 23 29 36 36 78 87 92 86 77 70
65 56 46 49 47 39 28 28 26 29 28 25 23 22 20 19 19 20 22 24 40 83 88 88 85 83 79

GFSFLT2_700_rhum_108.txt.gz
RH
42 41 43 46 48 51 50 49 45 43 35 38 37 47 39 31 21 40 44 47 71 57 62 72 81 99 100
41 41 44 47 49 53 55 50 43 40 36 36 50 54 28 11 17 18 40 54 61 68 88 100 100 100 99
42 46 47 50 53 55 52 46 40 36 36 44 58 54 18 13 14 40 100 100 99 96 92 79 89 97 100
48 49 48 49 52 52 48 40 36 35 40 60 62 39 13 16 18 21 36 50 62 73 85 96 99 100 94
51 52 50 48 50 50 45 41 39 42 62 64 59 16 16 21 22 22 21 21 47 99 100 99 91 91 91
49 51 50 50 53 53 50 45 46 63 67 61 20 19 23 26 26 25 24 22 22 20 22 23 20 18 17
52 53 53 57 61 59 53 54 66 66 35 21 22 26 28 26 24 22 19 18 17 16 16 15 13 10 7
56 54 58 64 68 63 63 71 50 25 23 26 28 28 28 25 23 20 18 16 15 13 13 12 12 13 14
58 59 65 70 71 72 77 40 20 25 31 33 32 29 27 24 22 21 20 21 20 21 22 24 25 25 25
66 68 72 76 80 76 33 19 25 31 33 32 31 39 60 50 43 31 27 27 28 30 33 34 33 32 31
78 81 80 81 56 22 19 27 33 34 34 42 61 75 60 64 66 51 46 45 45 45 44 42 40 39 37
70 69 57 21 17 22 31 35 36 39 56 67 70 54 66 92 62 54 52 53 55 55 55 54 53 51 48
48 46 26 17 24 33 38 54 49 42 46 45 45 50 65 92 90 91 75 69 64 62 63 64 64 61 59
74 34 30 48 61 56 64 71 59 64 56 42 59 83 56 57 59 80 82 80 56 60 54 48 65 71 70
45 30 44 44 50 51 58 83 88 57 43 41 42 46 35 32 30 28 27 28 31 46 44 40 67 74 76
67 51 28 27 34 40 57 43 54 38 42 41 40 36 32 29 26 24 23 23 24 27 32 32 56 76 88
60 65 53 49 65 67 77 56 31 29 32 37 41 33 29 27 25 22 21 20 20 21 23 26 49 76 88

GFSFLT2_700_rhum_111.txt.gz
RH
59 50 43 42 43 44 46 48 50 51 50 44 39 36 36 46 43 29 32 41 38 31 63 78 90 99 98
42 39 40 41 46 46 47 47 51 52 48 41 37 36 40 56 36 27 50 56 65 85 62 75 79 98 98
43 42 43 46 47 48 48 49 50 49 44 36 34 35 52 51 21 37 76 66 65 93 87 88 88 94 99
51 47 46 50 51 52 49 48 49 46 40 34 35 50 61 40 21 58 97 99 100 73 90 100 98 100 86
41 43 44 48 52 53 51 50 50 46 41 37 50 64 62 20 18 19 91 100 100 99 99 98 89 91 100
44 45 50 53 54 54 54 55 53 50 45 53 64 67 33 17 20 21 24 47 29 31 60 59 88 96 100
49 50 56 57 56 55 59 61 56 52 59 66 59 26 20 23 26 26 26 25 23 22 23 73 96 94 89
48 52 56 57 57 60 66 66 63 65 62 36 23 24 27 28 27 25 25 21 21 19 19 19 19 18 16
56 58 59 60 62 67 70 69 76 55 24 23 28 31 29 28 26 25 24 20 18 16 15 13 12 11 11
63 64 64 65 68 72 76 78 54 22 23 32 32 30 29 27 27 26 23 21 22 22 22 22 22 23 24
74 73 73 77 78 80 75 43 20 23 28 31 32 31 48 70 65 58 42 39 40 33 33 33 34 34 33
79 68 73 72 62 39 22 19 25 32 33 34 48 69 72 58 59 80 89 90 83 71 55 51 50 47 45
77 48 49 46 26 16 20 30 34 37 37 43 58 56 54 58 80 85 68 78 79 80 64 60 62 62 60
77 66 61 32 28 22 32 36 52 56 48 51 62 50 47 54 65 78 77 87 94 93 78 67 63 50 50
88 89 66 50 37 54 61 56 62 68 61 69 63 44 49 74 64 41 50 39 38 42 49 48 47 41 37
87 91 66 27 22 32 37 47 61 78 73 67 46 45 43 41 39 34 31 28 26 25 24 25 27 30 31
74 58 53 54 49 39 42 41 49 65 61 64 36 40 43 43 41 33 29 27 26 23 21 21 21 22 23

GFSFLT2_700_rhum_114.txt.gz
RH
71 56 44 39 37 36 40 45 45 46 45 45 43 43 38 33 31 34 39 30 37 36 33 51 61 76 88
43 36 37 44 48 46 45 45 42 46 46 44 46 40 34 31 38 47 32 32 43 40 40 61 63 83 98
34 42 37 40 47 47 47 48 46 46 44 44 44 37 32 33 54 44 19 47 62 93 82 76 80 93 98
35 35 38 37 39 45 45 47 49 48 46 46 43 36 33 48 60 33 34 63 89 98 99 90 87 85 100
32 32 36 37 43 48 49 50 51 49 48 49 44 38 42 61 52 29 47 100 97 97 81 95 100 99 99
38 36 38 40 46 50 52 53 52 50 52 52 46 50 62 64 30 21 26 98 98 98 99 100 95 99 99
41 41 44 46 46 50 52 53 53 58 57 53 53 66 65 36 18 20 21 28 96 100 100 79 52 54 62
54 52 48 50 51 55 54 54 63 64 63 63 61 43 25 22 24 26 26 25 28 47 30 23 23 31 54
56 58 55 53 56 59 55 61 70 72 71 56 30 24 25 28 28 27 29 26 22 20 32 41 25 20 20
63 63 59 61 64 64 66 73 80 82 60 25 24 28 31 31 29 30 34 25 21 19 17 16 14 12 12
67 69 73 72 72 74 78 83 79 49 24 22 31 33 30 29 31 33 32 31 27 23 23 24 26 27 25
70 79 84 71 73 72 60 45 28 21 23 29 31 32 34 57 70 64 64 69 54 49 50 48 52 49 50
79 90 82 52 48 42 24 17 19 26 32 34 33 46 69 71 60 61 76 73 79 87 80 82 74 74 70
91 93 80 53 48 30 27 20 28 34 39 40 40 43 49 47 52 72 69 81 82 88 91 94 95 95 86
88 86 83 89 77 42 29 39 46 55 64 52 76 86 93 94 65 63 74 62 76 60 58 70 89 92 71
86 82 88 95 51 28 38 40 51 51 61 77 88 89 80 56 46 51 47 44 35 36 33 26 26 26 27
75 75 69 53 57 59 32 24 29 34 49 76 92 90 87 48 46 44 42 39 32 30 28 27 24 23 26

GFSFLT2_700_rhum_117.txt.gz
RH
65 66 57 47 37 42 43 44 44 41 38 35 39 42 42 41 36 30 25 23 32 31 31 36 35 34 55
60 54 40 36 39 35 34 37 40 38 39 39 39 42 41 39 34 29 24 31 30 32 37 39 57 64 67
49 39 36 36 36 36 37 36 36 37 35 39 43 43 44 40 33 29 31 38 29 49 44 48 66 79 79
37 33 34 34 34 36 38 42 44 43 39 39 45 45 45 40 33 36 45 47 80 81 94 86 87 93 95
36 37 39 40 39 40 40 44 48 48 46 47 46 46 45 40 39 54 52 34 99 100 100 99 99 99 88
43 44 44 42 41 43 44 43 47 48 48 50 50 49 45 44 54 61 40 95 100 95 98 99 98 98 98
48 46 45 44 46 47 46 48 52 53 52 53 53 52 51 55 64 48 22 26 98 88 98 100 98 99 98
48 54 55 53 53 51 48 47 52 54 54 58 59 58 58 59 40 20 18 20 30 88 100 99 90 90 68
57 65 64 61 59 56 55 56 60 62 66 64 64 58 40 25 22 24 26 26 26 25 54 90 100 81 23
65 65 68 65 64 61 61 63 66 68 72 71 60 29 24 25 28 28 27 27 24 21 20 19 19 19 14
67 66 69 70 70 68 68 72 75 76 74 61 30 24 28 31 31 29 26 26 24 23 21 21 18 15 15
70 67 66 70 75 77 70 69 61 52 43 25 22 26 32 31 30 43 54 48 48 43 31 26 25 26 28
73 68 70 75 81 69 53 57 40 22 19 21 29 32 32 31 60 70 68 69 77 77 84 66 66 64 69
76 72 72 81 83 67 61 57 41 22 25 33 35 34 36 55 77 80 74 83 81 82 85 91 94 95 90
80 79 80 82 84 86 88 66 34 28 31 38 44 44 57 66 82 85 76 94 88 81 91 81 85 95 96
85 83 83 80 81 88 81 68 48 50 54 57 60 64 90 95 95 92 89 81 92 90 54 68 56 38 37
87 85 80 74 72 77 79 73 39 41 59 59 62 84 84 92 92 68 57 49 45 56 68 35 44 70 42

GFSFLT2_700_rhum_120.txt.gz
RH
81 66 51 58 50 37 31 33 32 31 30 31 31 31 33 35 37 38 36 31 25 22 26 29 31 32 37
65 52 54 48 39 32 34 32 32 33 30 28 35 34 32 40 40 40 38 31 25 26 28 28 34 38 42
47 46 43 39 32 32 32 33 35 35 34 36 38 33 34 39 40 40 37 32 29 30 34 37 37 47 56
45 45 40 34 35 37 39 39 37 37 37 37 41 41 41 41 43 42 37 44 41 35 68 71 66 60 80
47 40 39 40 43 43 40 38 36 34 38 40 44 45 43 43 44 43 40 53 92 93 100 98 87 91 90
40 40 46 47 44 42 40 37 42 42 42 42 46 46 45 45 46 45 54 55 72 100 99 89 98 98 98
48 51 49 45 46 45 46 47 46 45 45 49 50 49 50 51 50 54 64 51 57 99 91 59 97 97 95
53 52 49 48 50 53 51 53 50 48 48 51 52 53 56 55 57 61 57 32 28 79 96 96 99 100 98
56 53 51 51 55 61 60 56 54 55 58 58 58 58 60 57 47 34 23 19 19 22 67 77 95 97 95
60 54 53 59 63 63 66 65 62 64 67 68 67 68 58 39 25 24 24 26 26 26 26 25 28 41 64
64 55 52 61 65 63 68 72 72 70 72 74 70 60 37 25 26 29 29 27 26 26 25 21 20 23 20
66 57 55 66 67 64 69 73 68 65 62 53 48 34 23 28 33 34 31 28 26 25 25 23 22 20 22
66 57 60 72 68 68 77 68 60 55 53 38 24 22 24 29 32 33 53 62 63 70 73 76 67 46 32
67 58 68 73 71 74 79 68 63 65 49 32 24 27 32 32 31 46 65 80 76 74 74 80 86 85 72
64 75 80 80 78 78 80 81 83 77 49 36 29 34 36 34 44 55 78 81 82 88 84 87 92 86 86
83 91 89 85 86 80 78 79 86 81 51 39 38 44 44 50 65 75 83 92 90 86 97 94 85 74 74
95 93 91 88 81 78 75 80 81 68 68 63 52 51 55 61 79 75 82 91 80 82 80 73 80 59 44

GFSFLT2_700_rhum_123.txt.gz
RH
77 98 86 77 52 44 44 34 29 28 29 29 31 29 23 30 30 31 34 32 30 31 28 24 24 25 29
88 98 83 56 39 38 36 31 28 30 32 33 33 31 30 33 31 33 37 36 32 32 28 26 26 27 31
92 77 55 44 41 39 34 31 33 36 37 36 34 32 34 37 36 39 40 39 35 33 30 28 32 40 50
76 55 48 45 41 36 35 38 40 39 37 34 31 32 35 39 43 43 42 42 39 36 37 55 71 66 72
69 55 46 42 36 40 45 42 41 39 37 34 36 37 38 43 44 45 45 44 51 88 87 100 75 78 90
66 51 43 38 46 47 44 42 40 41 39 38 38 39 40 45 45 47 47 47 57 100 82 85 71 100 100
62 54 45 47 50 47 44 42 42 44 44 45 43 43 45 47 48 50 51 52 60 65 99 95 92 100 84
62 54 50 53 52 48 46 47 47 51 51 49 47 46 49 53 55 55 56 62 58 62 100 98 82 98 98
62 56 55 57 55 51 50 53 55 58 56 53 52 55 60 60 59 56 53 50 33 30 60 71 98 100 97
64 59 59 60 58 52 52 60 58 59 62 60 60 62 64 62 50 38 28 23 21 21 22 29 61 83 96
70 65 64 66 60 54 55 62 60 67 70 68 67 67 67 55 34 26 25 26 28 28 26 25 24 23 22
79 70 71 70 62 52 59 64 64 69 67 66 62 56 45 32 25 27 31 31 30 27 25 24 22 21 21
83 76 78 72 60 54 67 66 68 71 65 62 50 41 25 23 25 31 32 30 32 35 44 60 69 68 59
85 81 79 71 60 63 73 72 74 70 62 65 53 34 24 26 30 30 31 53 64 70 70 71 68 70 80
90 87 76 64 65 73 79 76 78 77 77 72 58 39 30 33 34 31 32 57 77 81 80 80 81 80 80
98 91 75 66 81 87 83 80 80 81 83 80 51 37 33 37 36 37 48 60 68 80 88 90 90 88 88
97 92 74 85 91 89 87 82 79 78 79 70 53 47 50 55 47 51 78 85 78 71 84 90 96 90 94

GFSFLT2_700_rhum_126.txt.gz
RH
98 98 99 83 97 93 68 43 37 33 28 27 26 29 30 30 28 25 25 26 28 32 28 29 28 26 24
99 100 87 97 96 72 46 41 37 32 27 28 30 31 31 29 28 28 31 33 32 34 32 31 30 26 24
100 94 81 92 84 52 44 41 34 29 31 33 32 32 30 28 27 32 38 38 36 38 37 35 34 30 34
95 98 99 82 60 49 41 36 33 36 36 37 36 34 31 29 32 37 42 42 40 39 39 44 57 54 48
100 90 81 76 58 44 40 37 42 39 37 37 36 35 32 34 37 41 46 44 44 44 52 98 79 71 80
92 90 86 70 51 45 41 44 42 41 39 39 38 38 39 42 42 45 46 47 48 49 93 82 76 99 89
96 91 80 61 50 45 45 47 46 44 44 45 44 46 45 44 45 48 52 52 53 59 100 88 100 82 87
98 91 78 58 50 49 51 52 49 46 45 48 50 51 50 49 50 52 55 56 59 62 80 96 94 93 100
96 97 81 63 57 54 56 56 52 49 49 54 54 57 55 56 57 58 57 55 62 64 76 99 99 99 99
80 86 83 68 61 59 60 60 54 49 55 58 58 62 63 64 62 59 53 42 37 32 36 58 96 99 92
77 87 84 75 70 63 66 63 53 49 62 63 65 66 67 66 63 54 36 26 24 23 23 23 23 38 43
85 81 80 82 74 71 72 64 52 56 64 67 69 66 64 59 53 39 27 27 28 27 27 26 24 23 22
87 84 75 90 79 75 75 65 55 66 70 72 66 63 54 41 31 26 28 31 30 28 25 25 26 30 28
83 95 80 96 85 81 74 62 61 73 73 69 60 61 59 42 28 25 26 31 32 32 46 63 70 70 70
97 88 93 98 93 86 69 64 72 79 78 74 71 71 63 48 34 30 32 31 42 65 75 77 79 81 83
90 92 98 97 96 91 70 79 85 81 78 79 81 80 69 48 38 35 34 30 48 69 79 83 90 93 94
93 98 96 97 97 85 78 89 89 85 84 80 79 80 69 52 44 39 36 42 54 81 87 76 78 94 97